Showing default

EGYPTSAT A, 44047

Orbit data source: Space-Track

EGYPTSAT A, 44047 is a payload satellite owned by EgSA (EG) in SSO that was launched on Thu, 21 Feb 2019 UTC via a SOYUZ-2-1B launch vehicle from the Tyuratam Missile And Space Complex (TTMTR). Payloads include a variety of satellites, spacecraft, and rockets equipped with specific instruments for various scientific and technological missions. These include communications satellites like Starlink; space stations such as the ISS; scientific satellites like the Hubble; Earth observation satellites from companies like Planet Labs, Umbra, and HawkEye 360; GPS; miniature CubeSats for education and research; and military/defense satellites.

Loading next visibility...
EGYPTSAT A details
Identifier
44047, 2019-008A
Orbit
SSO
Last TLE update5 hours ago
Origin
Flag of EGEgSA (EG / EGYP)
ManufacturerYuzhnoe
MissionOperational Civil Imaging
Bus & MotorEGYPTSAT, Unknown motor
Mass~1,050 kg wet, ~1,050 kg dry
Launch date (UTC)
2019-02-21 (6 years ago)
Launch vehicle
SOYUZ-2-1B
Launch site
Tyuratam Missile And Space Complex (TTMTR)
Object type
Payload
Rocket body
Debris
Shape & HBRBox + 4 Pan + 1 Ant, 2 m
Radar Cross Section0.867 m², Large (>1 m²)

Expand to show TLE details & history

TLE from 5 hours ago
0 EGYPTSAT A
1 44047U 19008A   24361.29866193  .00001870  00000-0  30373-3 0  9992
2 44047  98.0198  62.7893 0001012  76.3359 283.7961 14.72294083314091
Epoch: 2024-12-26T07:10Z
Definitive object data (Epoch: 2024-12-26T07:10:04.39Z)
Latitude-0.00004°
Longitude-140.00904°
Altitude656.592 km
Speed7.529 km/s
True Right ascension04h 11m 09s
True Declination0° 00' 00"
Sunlit
Object was in full shadow at TLE epoch
Visualization TLE readout
Latitude78.53216°
Longitude83.90047°
Altitude666.303 km
Speed7.531 km/s
Apparent Right ascension22h 56m 01s
Apparent Declination27° 01' 10"
Sunlit
Object is in daylight
Visualization observer readout
Local Sidereal Time11:51:52
Azimuth13.389° NNE
Elevation-21.813°
Doppler factor1
Orbital elements
Apogee altitude651.522 km
Perigee altitude650.099 km
Semi-major axis7,028.948 km
Eccentricity0.0001012
Inclination98.0198°
RAAN62.7893°
Arg. of periapsis76.3359°
True anomaly283.78484°
Mean anomaly283.7961°
Eccentric anomaly283.79047°
Mean motion3.68305 °/min
BSTAR0.00030373
Orbital period97.75 mins
Loading maneuver chart data...
Loading historical data...
Loading historical data...
Loading historical data...
Loading historical data...
Loading historical data...
Loading historical data...
Loading historical data...
Other satellites on launch #8 in the year 2019 (2019-02-21 UTC)

EGYPTSAT A Visibility forecast

Observer location: undefined°, undefined

Span
Click to sort rows by Start time (UTC) header in descending order
Start Az.
Max El. time (UTC)
Max El. Az.
Max El.
End time (UTC)
End Az.
6 mins2024-12-26 17:32:21.300Z357.185° N2024-12-26 17:35:21.300Z261.368° W39.446°2024-12-26 17:38:21.300Z210.889° SW
7 mins2024-12-27 04:30:21.300Z177.574° S2024-12-27 04:33:21.300Z279.847° WNW43.15°2024-12-27 04:37:21.300Z342.355° N
|